Temp
1 2 2 2 2 3 1 1 2 2 3 4 7 11 9 14 16 16 17 18 18 18 17 17 17 17 17 17 17 16 16 16 16 15 16 16 15 15 15 15 14 13 12
1 1 1 1 1 1 1 1 1 2 2 3 5 10 8 12 14 17 17 18 18 18 18 17 17 17 17 17 17 16 16 16 16 16 16 16 16 15 15 14 14 13 12
0 0 0 0 -0 0 1 1 1 0 1 2 4 6 7 11 14 16 16 18 18 18 18 18 17 17 17 16 17 16 16 16 16 16 16 15 16 15 15 15 15 14 13
0 0 0 0 -0 0 0 1 1 1 1 2 3 4 7 9 13 14 16 16 18 18 18 18 18 17 17 16 16 16 16 16 16 16 16 15 15 15 15 15 14 14 13
0 1 1 0 0 0 1 1 1 1 2 1 2 3 5 9 13 13 16 16 17 17 17 18 18 17 17 16 16 16 16 16 16 16 16 15 15 15 15 15 14 14 13
0 1 1 1 0 0 0 0 1 1 2 1 1 3 5 10 12 12 15 15 15 16 17 16 17 17 17 16 16 16 16 15 16 16 16 15 15 15 15 15 15 14 13
-0 0 1 1 1 1 0 0 1 1 2 1 2 2 5 8 11 12 12 15 15 15 16 16 16 16 17 17 16 16 16 16 16 16 16 16 15 15 15 15 15 14 13
-1 0 0 1 0 1 1 1 1 0 -0 0 1 3 8 11 11 12 14 14 15 15 15 15 16 16 16 16 16 16 16 16 16 16 16 16 15 15 15 15 15 15 14
-1 -1 -0 0 0 1 0 0 0 -1 -1 0 0 1 4 6 5 12 13 14 14 14 14 15 15 16 16 16 16 16 16 16 16 16 16 16 15 15 15 15 15 15 14
-1 -1 -1 -1 -0 -0 -1 -0 -1 -2 -1 -0 0 1 1 3 5 8 12 13 13 14 14 15 15 15 15 16 16 16 16 16 16 16 16 16 16 15 15 15 15 14 13
-1 -1 -2 -1 -1 -1 -1 -1 -2 -2 -2 -1 -0 0 1 2 3 4 9 9 13 14 14 14 14 14 15 16 16 16 16 16 16 16 16 15 16 15 15 15 15 14 13
-1 -1 -2 -2 -2 -2 -2 -2 -3 -2 -2 -1 -1 0 1 1 2 3 5 6 8 11 13 14 14 14 15 15 15 16 17 16 16 16 16 16 15 16 15 15 15 14 14
-2 -2 -3 -3 -2 -3 -2 -3 -3 -2 -2 -1 -1 -0 0 1 1 2 3 5 7 8 12 14 14 14 14 15 15 16 17 17 16 16 16 16 16 15 15 15 15 15 14
-2 -3 -3 -3 -3 -2 -3 -3 -3 -2 -2 -1 -1 -0 -0 0 0 1 2 4 6 9 9 13 14 14 14 14 15 16 17 17 16 16 17 16 16 16 15 15 15 15 14
-2 -3 -3 -3 -3 -3 -3 -3 -3 -2 -2 -1 -1 -1 -0 -0 0 0 1 2 5 7 10 11 14 14 15 14 15 16 15 15 16 16 17 16 16 16 15 15 15 15 15
-3 -3 -4 -3 -3 -3 -3 -3 -3 -2 -2 -2 -1 -1 -1 -1 -0 -0 0 1 2 4 7 8 8 9 13 15 15 15 14 17 15 16 16 16 16 16 16 15 15 15 15
-3 -4 -4 -3 -3 -3 -3 -3 -3 -3 -2 -2 -2 -1 -1 -1 -1 -1 -1 0 1 2 4 5 6 8 10 14 15 15 14 14 14 14 16 16 16 16 16 16 15 15 15
-4 -4 -4 -4 -4 -3 -3 -3 -3 -3 -3 -2 -2 -2 -2 -1 -1 -1 -1 -1 0 1 2 4 5 7 10 14 14 14 16 14 16 17 16 16 16 16 16 16 16 15 15
-4 -4 -5 -4 -4 -4 -4 -3 -3 -3 -3 -2 -3 -2 -2 -2 -2 -2 -1 -1 -1 0 1 2 3 5 7 12 14 14 14 15 15 15 17 17 16 16 16 15 15 15 15
-4 -5 -5 -5 -4 -4 -4 -3 -3 -3 -3 -3 -3 -3 -3 -3 -3 -2 -2 -1 -1 -0 1 2 3 5 6 11 13 13 14 14 14 14 15 16 16 16 16 15 15 15 15
-4 -5 -6 -5 -5 -4 -4 -4 -4 -4 -3 -3 -3 -3 -3 -3 -3 -3 -3 -2 -1 -0 1 2 3 5 6 8 12 12 12 13 14 14 15 14 15 15 15 15 15 15 15
-4 -5 -6 -6 -5 -5 -4 -4 -4 -4 -4 -3 -3 -4 -3 -4 -4 -3 -3 -2 -2 -1 -1 0 2 3 4 5 6 11 12 12 12 13 14 14 14 15 15 15 15 15 15
-4 -5 -6 -6 -5 -5 -5 -5 -5 -5 -4 -4 -4 -4 -4 -5 -5 -4 -3 -3 -2 -2 -2 -1 -0 1 1 2 3 5 12 13 13 13 14 14 13 13 14 15 15 15 16
-4 -5 -5 -6 -5 -6 -5 -5 -6 -5 -5 -5 -5 -5 -5 -5 -5 -5 -4 -3 -2 -3 -2 -2 -1 -1 -0 1 2 3 6 10 12 13 13 12 12 13 13 15 15 16 16
-5 -5 -5 -5 -6 -6 -6 -6 -6 -5 -5 -5 -6 -6 -6 -6 -6 -6 -4 -4 -3 -3 -2 -2 -2 -1 -0 1 2 5 6 8 11 11 11 12 12 13 13 13 14 15 16
-5 -5 -5 -5 -6 -6 -6 -6 -6 -6 -6 -6 -6 -6 -6 -6 -6 -6 -6 -5 -4 -4 -4 -2 -2 -1 -0 1 2 2 2 4 9 10 10 11 12 12 12 12 13 14 14
Height
835 829 824 819 814 809 804 798 794 786 780 774 772 768 776 768 772 775 780 785 787 792 799 805 812 817 822 827 831 836 841 846 851 854 859 864 869 871 874 876 878 881 882
836 831 826 820 815 811 805 800 794 789 783 775 771 763 776 764 764 769 773 779 782 786 793 800 806 813 818 823 829 833 838 843 849 853 857 862 867 870 873 876 879 881 882
836 832 827 823 816 811 805 800 794 788 783 773 758 762 759 758 758 760 767 772 778 782 788 794 800 807 814 819 825 831 836 841 846 852 855 860 864 869 872 876 878 881 882
837 832 827 823 818 811 806 799 793 788 782 778 769 763 755 754 756 757 761 767 771 777 784 791 795 802 809 815 822 827 834 839 843 850 853 858 862 867 870 875 878 880 881
838 833 827 822 817 811 806 799 793 787 780 774 768 759 753 747 745 753 753 761 764 770 776 785 791 797 805 810 817 823 830 836 840 847 851 856 860 864 868 873 876 879 881
837 832 827 822 816 811 805 799 793 786 778 770 763 753 744 735 742 749 746 754 759 760 770 776 787 793 801 807 813 819 826 832 837 844 848 853 857 862 866 870 874 877 880
837 832 826 821 815 810 805 799 793 786 776 768 755 743 736 733 736 741 744 748 754 759 767 773 774 787 794 803 809 816 821 827 833 840 845 850 855 859 864 868 872 876 879
837 832 827 821 815 810 805 800 794 788 781 774 766 754 740 730 733 736 739 744 749 756 761 766 773 781 788 796 804 811 817 823 828 834 842 846 851 856 861 866 870 875 878
837 832 827 821 816 810 805 802 796 791 784 777 772 771 760 751 745 733 736 737 743 752 757 762 767 775 783 790 797 805 812 818 824 829 837 842 847 853 858 862 867 872 876
838 833 828 822 817 812 808 803 798 792 787 779 774 771 769 767 758 743 731 735 742 747 752 759 764 769 777 784 790 798 805 812 819 825 832 838 842 849 854 859 864 869 874
839 834 829 824 818 813 809 805 798 793 789 785 779 774 769 762 762 756 743 739 736 742 749 754 751 764 771 778 785 791 799 807 814 821 826 834 838 844 850 855 860 866 871
839 835 830 825 820 814 809 805 800 794 789 786 782 777 774 771 766 763 755 748 743 735 742 747 752 759 767 774 779 783 792 801 808 815 822 829 835 840 846 851 857 863 868
841 836 831 826 821 816 811 805 800 796 791 786 783 779 775 774 771 766 759 753 749 740 739 743 746 753 761 768 773 778 787 795 802 809 816 823 830 836 842 847 852 859 864
843 838 833 829 823 819 813 807 802 797 792 787 783 780 777 773 770 767 763 757 751 742 735 732 732 744 753 761 766 773 781 789 796 803 810 818 825 831 837 843 848 854 860
845 839 835 830 825 820 814 808 803 798 794 789 784 780 777 773 769 767 763 763 757 745 742 735 739 742 749 756 763 768 776 784 790 798 804 811 819 825 831 838 843 849 854
847 841 836 832 827 822 817 810 805 801 796 793 788 783 779 777 773 770 766 764 758 758 753 751 745 745 749 751 756 763 773 778 784 792 799 807 814 821 826 832 838 844 850
849 844 838 834 830 824 819 813 807 803 799 795 792 787 783 778 775 772 767 762 763 765 760 757 754 750 744 743 751 760 767 774 780 787 793 801 808 815 820 826 832 838 844
851 846 841 836 832 827 822 816 811 806 801 797 795 790 788 785 778 774 769 767 765 765 761 758 756 748 739 737 747 754 759 768 772 778 787 795 802 808 814 820 826 832 837
854 849 844 839 834 829 823 819 814 810 806 801 797 793 789 786 784 777 772 769 768 764 762 761 758 752 745 741 741 751 753 765 776 780 783 788 794 800 807 813 819 825 830
856 852 847 843 838 832 827 822 818 814 809 806 802 798 793 788 783 780 775 773 768 762 760 759 756 753 751 743 745 743 753 762 768 771 777 781 786 792 799 805 811 817 823
858 855 851 847 842 836 830 825 821 817 813 809 806 801 797 795 789 783 779 775 767 764 763 760 758 751 748 747 745 748 749 755 759 763 769 773 779 784 789 796 802 808 814
861 858 853 850 845 841 835 829 824 820 817 814 809 806 801 795 791 784 782 776 770 770 767 765 762 759 754 756 747 743 743 742 747 754 761 767 771 775 779 784 790 796 802
864 860 857 853 849 845 839 833 828 824 820 817 812 808 802 798 791 786 780 774 772 768 768 767 766 762 760 758 756 749 747 750 752 755 760 762 766 769 772 775 779 784 790
866 863 860 856 853 848 843 838 831 827 823 819 815 812 806 799 793 788 783 779 776 771 768 766 764 758 759 758 755 754 749 749 752 754 757 759 762 762 765 766 769 773 779
868 866 863 860 856 852 847 842 836 831 826 823 819 814 810 806 800 793 786 780 778 776 770 767 763 760 760 758 752 750 749 749 748 750 752 753 755 758 760 759 760 765 770
872 868 866 863 860 856 851 846 841 837 831 827 824 819 814 810 805 797 792 788 781 777 772 766 763 761 759 755 753 752 750 747 745 748 751 754 753 755 755 754 757 759 762
Wind_Speed
25 25 23 23 24 23 24 27 26 27 27 20 19 18 26 10 32 37 40 41 40 40 39 38 39 39 38 38 37 36 33 32 31 29 27 23 19 19 16 14 12 12 13
25 25 23 24 24 24 24 25 26 27 22 23 24 18 30 16 9 42 41 42 38 41 42 40 42 40 39 39 38 38 35 34 31 31 30 27 21 19 17 16 12 11 12
24 24 22 24 24 26 24 24 24 26 24 25 21 27 24 16 17 25 39 46 43 41 44 43 44 43 41 40 40 38 36 35 31 32 31 29 25 22 19 16 12 11 12
24 23 21 23 27 24 24 23 25 26 25 19 20 25 29 26 23 15 35 38 47 42 43 45 45 45 43 42 41 39 37 37 34 34 33 30 28 24 21 15 13 12 13
23 23 21 22 24 24 23 24 25 24 27 22 24 25 26 26 26 21 34 37 43 44 50 45 45 46 44 43 43 40 38 39 34 35 34 31 29 25 22 17 17 15 13
23 21 21 23 22 22 23 25 25 26 26 24 26 21 19 30 35 29 25 35 36 43 46 49 46 46 45 43 43 41 39 38 37 35 35 32 30 28 24 21 17 16 14
23 21 22 23 23 22 22 24 22 29 25 27 18 22 14 17 31 38 28 28 33 37 40 44 53 47 45 44 42 43 40 39 37 36 37 35 32 29 26 22 18 16 15
20 20 22 23 24 24 22 22 27 28 21 23 14 12 5 3 18 30 31 28 30 34 35 38 44 43 47 47 43 42 42 40 40 37 37 36 33 31 28 24 20 18 16
20 21 22 23 24 23 22 23 27 22 19 21 21 10 4 4 7 15 27 22 28 30 38 32 39 39 41 43 43 43 43 41 40 39 38 38 35 32 30 27 23 20 19
21 21 22 23 23 22 21 24 26 19 19 19 17 18 13 11 3 5 3 29 24 30 32 35 37 39 40 40 42 46 45 43 41 39 39 38 37 34 32 30 24 22 23
21 21 22 22 22 22 20 25 23 19 20 15 17 17 15 14 9 4 3 7 24 31 32 40 34 36 41 42 42 46 45 43 43 40 39 38 38 36 34 32 26 25 25
22 22 22 21 22 23 22 24 20 19 20 19 17 18 15 7 11 7 3 4 8 7 32 33 37 39 39 41 40 41 46 44 43 42 40 39 38 38 37 35 29 26 27
23 23 23 24 23 25 23 21 21 19 20 20 19 19 16 14 13 11 11 7 3 5 3 34 38 39 40 37 39 42 44 43 46 45 42 40 38 39 39 36 34 29 28
22 22 23 23 22 23 23 23 18 19 20 20 19 20 18 18 15 12 8 12 3 2 4 2 19 33 36 39 39 37 39 42 49 48 46 43 40 39 40 39 37 33 30
22 20 20 24 22 23 24 23 20 20 20 20 20 22 19 20 20 16 14 13 8 4 2 8 4 25 29 33 39 39 37 42 45 49 47 47 44 41 40 41 40 38 35
21 21 20 22 22 23 25 24 21 21 20 20 22 21 22 21 20 20 17 12 10 7 3 5 8 20 19 36 34 37 38 38 42 46 48 49 47 44 41 41 42 42 39
21 21 20 19 22 23 26 24 21 20 20 21 22 21 22 22 22 21 20 14 9 8 5 13 17 24 21 28 34 35 27 33 35 37 45 52 53 48 45 42 43 44 43
20 20 20 19 21 24 26 25 22 21 21 22 21 21 21 22 23 21 21 15 11 10 8 11 14 16 15 14 28 30 23 21 41 32 44 53 56 53 48 46 44 44 46
20 20 20 21 22 24 27 25 21 21 21 21 22 23 23 25 23 23 18 16 12 10 10 9 11 10 17 11 22 28 28 29 45 42 42 53 57 56 52 50 48 46 45
20 20 19 21 23 25 29 25 22 21 21 20 24 23 23 26 28 25 19 20 15 12 10 11 11 11 12 14 9 16 31 38 34 37 30 36 51 55 55 53 50 50 48
19 20 18 21 23 26 31 28 22 21 21 21 22 25 23 24 26 24 22 20 17 11 9 10 11 11 9 20 9 9 15 23 28 28 29 29 32 42 54 55 55 53 51
19 20 19 20 23 27 30 27 24 21 21 21 23 25 24 27 31 26 22 18 16 14 10 9 7 10 11 13 13 9 6 2 2 13 17 27 31 34 39 50 56 57 56
19 20 20 20 22 26 30 29 23 21 22 22 23 26 28 28 33 27 23 20 18 15 14 10 10 9 11 12 17 17 14 11 9 10 17 11 24 31 37 41 46 55 57
18 19 21 20 21 24 29 30 24 21 21 22 22 24 29 30 33 30 22 20 19 21 19 15 10 11 11 13 12 16 10 5 10 14 16 6 8 25 31 40 41 43 51
18 17 19 21 22 23 29 29 24 23 21 21 21 24 30 30 30 30 24 24 21 23 21 17 16 14 9 9 10 10 4 9 5 8 14 8 6 7 17 28 37 38 40
17 16 17 20 22 22 27 28 28 23 21 21 22 23 28 29 28 30 25 24 25 24 26 26 23 20 19 16 13 10 9 6 1 5 8 14 12 6 4 17 29 31 33
Wind_Direction
353 349 348 345 342 341 341 341 340 339 330 319 296 294 289 250 210 206 209 204 197 193 193 191 189 188 188 186 183 180 178 177 176 171 163 155 163 157 153 146 144 147 150
352 349 346 345 343 340 337 338 336 337 333 321 294 278 280 269 264 212 213 205 201 198 196 193 189 189 188 188 187 184 182 179 179 175 165 162 168 166 162 159 155 154 151
356 351 347 345 341 337 335 337 338 337 336 327 321 283 293 284 247 221 211 214 208 203 200 198 191 191 190 188 189 188 184 181 181 179 170 169 171 173 168 169 169 166 157
357 351 346 343 339 337 336 336 339 337 334 327 316 295 275 267 269 267 213 214 213 208 206 201 197 192 191 188 188 189 188 183 183 185 176 175 176 176 174 178 182 179 163
353 350 346 342 342 339 338 338 337 337 333 326 316 298 280 261 252 263 210 214 214 209 202 204 200 193 192 190 191 189 189 185 186 189 182 182 181 181 177 183 190 185 171
349 346 345 340 340 340 340 340 337 338 334 328 317 297 289 250 236 249 214 213 215 207 199 202 202 196 193 192 192 190 189 188 189 192 187 187 187 186 185 185 189 187 179
348 349 346 343 344 339 339 342 343 342 340 340 336 328 297 238 233 236 256 208 210 207 205 195 197 198 194 193 195 194 190 189 189 194 193 191 192 191 192 189 193 198 187
354 354 349 345 346 346 347 350 348 345 340 347 338 318 328 280 232 230 240 218 200 205 198 195 190 190 195 193 194 198 193 192 191 193 198 195 196 194 195 194 199 202 202
360 358 353 348 350 349 352 355 349 350 338 347 2 13 342 330 337 224 210 200 198 204 210 201 196 190 189 192 193 200 197 193 194 192 201 198 198 198 197 195 198 203 205
1 0 357 352 351 352 356 353 350 347 345 344 355 352 343 307 332 314 223 215 218 200 205 206 202 197 195 196 193 196 198 196 194 195 201 202 199 200 199 198 200 201 205
0 359 356 353 353 352 352 353 352 349 348 348 349 347 350 342 17 317 315 358 201 200 202 205 195 194 198 194 192 195 197 198 196 197 202 205 203 203 201 201 199 202 209
357 359 355 351 348 347 359 353 350 350 351 352 353 355 2 1 341 340 321 324 310 209 216 202 197 195 190 191 190 194 197 198 201 200 205 209 207 206 205 204 200 206 210
356 354 356 357 353 2 358 355 350 350 351 352 356 356 1 7 351 334 323 343 307 350 203 213 205 189 192 193 197 202 202 205 205 203 205 210 212 210 209 207 204 212 213
356 353 0 359 357 360 359 356 354 354 356 355 359 7 3 5 4 350 333 327 294 270 3 160 208 188 195 198 202 207 215 213 206 204 206 209 213 214 213 211 208 208 212
357 355 359 3 359 2 4 359 358 355 358 2 8 9 10 7 9 4 1 344 334 4 317 360 242 205 212 203 205 208 207 210 209 208 208 209 215 215 216 215 212 211 214
2 1 3 5 4 6 4 1 360 1 1 8 9 10 12 9 7 8 5 346 352 347 305 334 330 330 226 208 202 205 204 215 210 211 212 213 216 217 217 219 217 215 214
4 6 6 6 9 5 5 5 3 4 5 8 12 11 11 8 6 1 3 1 342 318 285 297 300 295 306 205 209 211 207 206 210 218 219 218 217 218 219 220 221 219 219
10 10 11 13 8 5 7 10 8 8 8 8 8 11 8 9 5 1 357 354 336 319 312 305 302 305 329 219 193 198 202 228 218 228 225 221 220 219 221 222 223 223 222
15 15 16 17 9 2 7 10 10 10 11 13 10 9 7 8 7 359 356 352 338 324 314 302 297 302 302 317 189 204 197 218 218 228 225 220 222 222 221 222 224 226 226
18 18 18 18 13 8 12 13 15 14 14 13 17 12 11 8 2 359 355 354 347 333 322 304 297 298 279 329 223 184 186 196 204 221 225 219 223 222 223 225 226 226 228
21 20 19 20 18 16 13 14 16 16 15 15 16 14 10 8 4 3 4 0 2 352 333 321 309 310 322 328 218 225 178 186 197 205 221 219 218 226 227 228 228 229 230
22 22 21 20 20 17 14 15 16 16 17 17 13 13 10 10 6 3 7 22 32 13 355 340 329 334 325 318 353 291 212 69 61 192 194 215 224 223 229 230 230 230 231
21 24 22 20 21 17 16 14 16 17 17 18 16 13 11 9 9 4 6 16 24 27 22 352 320 331 321 331 328 320 201 204 200 171 193 211 229 232 239 234 233 231 231
19 22 23 20 21 19 17 16 14 17 20 19 17 15 13 10 10 7 8 15 16 24 24 14 357 349 329 322 322 289 284 253 221 204 218 195 215 228 230 240 242 239 232
17 19 23 23 21 20 18 18 17 15 14 17 16 17 17 15 11 12 15 14 15 16 31 35 31 29 21 360 345 326 279 254 189 203 221 220 235 249 231 232 236 242 239
18 18 21 22 22 20 17 19 18 18 16 12 15 18 18 16 16 19 23 18 13 5 10 29 33 39 35 28 22 22 350 317 302 169 189 195 202 201 299 246 234 242 243